Wetterdaten: Montag, 10.05.2004
Datum Zeit Temp. A Sch. Temp. A Son. Feuchte A. Luftdruck Regen Wind Richtung Richtung Sonnenschein Helligkeit Taupunkt Windchill
10.05.2004 00:00 8,4 C 9,2 C 88 % 1008 hPa 0,0 l/m 0,8 m/s (0 Bft) W-SW 245 0,00 min 0 lux 6,5 C 8,4 C
10.05.2004 00:05 8,2 C 9,2 C 88 % 1008 hPa 0,0 l/m 1,1 m/s (0 Bft) W-SW 245 0,00 min 0 lux 6,3 C 8,2 C
10.05.2004 00:10 8,2 C 9,1 C 88 % 1008 hPa 0,0 l/m 0,0 m/s (0 Bft) W-SW 245 0,00 min 0 lux 6,3 C 8,2 C
10.05.2004 00:15 8,4 C 9,2 C 88 % 1008 hPa 0,0 l/m 0,1 m/s (0 Bft) W-SW 240 0,00 min 0 lux 6,5 C 8,4 C
10.05.2004 00:20 8,2 C 9,1 C 89 % 1008 hPa 0,0 l/m 0,8 m/s (0 Bft) W-SW 240 0,00 min 0 lux 6,5 C 8,2 C
10.05.2004 00:25 8,2 C 9,1 C 88 % 1008 hPa 0,0 l/m 0,0 m/s (0 Bft) W-SW 240 0,00 min 0 lux 6,3 C 8,2 C
10.05.2004 00:30 8,3 C 9,0 C 88 % 1008 hPa 0,0 l/m 0,0 m/s (0 Bft) W-SW 245 0,00 min 0 lux 6,4 C 8,3 C
10.05.2004 00:35 8,2 C 9,0 C 89 % 1008 hPa 0,0 l/m 0,0 m/s (0 Bft) W-SW 245 0,00 min 0 lux 6,5 C 8,2 C
10.05.2004 00:40 8,2 C 9,0 C 89 % 1008 hPa 0,0 l/m 0,0 m/s (0 Bft) W-SW 245 0,00 min 0 lux 6,5 C 8,2 C
10.05.2004 00:45 8,3 C 8,9 C 89 % 1008 hPa 0,0 l/m 0,0 m/s (0 Bft) W-SW 240 0,00 min 0 lux 6,6 C 8,3 C
10.05.2004 00:50 8,4 C 8,9 C 89 % 1008 hPa 0,0 l/m 0,0 m/s (0 Bft) W-SW 240 0,00 min 0 lux 6,7 C 8,4 C
10.05.2004 00:55 8,2 C 8,9 C 89 % 1008 hPa 0,0 l/m 0,0 m/s (0 Bft) W-SW 240 0,00 min 0 lux 6,5 C 8,2 C
10.05.2004 01:00 8,1 C 8,8 C 89 % 1008 hPa 0,0 l/m 0,0 m/s (0 Bft) W-SW 240 0,00 min 0 lux 6,4 C 8,1 C
10.05.2004 01:05 8,2 C 8,8 C 90 % 1008 hPa 0,0 l/m 0,0 m/s (0 Bft) W-SW 240 0,00 min 0 lux 6,7 C 8,2 C
10.05.2004 01:10 8,2 C 8,8 C 90 % 1008 hPa 0,0 l/m 0,0 m/s (0 Bft) W-SW 240 0,00 min 0 lux 6,7 C 8,2 C
10.05.2004 01:15 8,4 C 8,8 C 90 % 1008 hPa 0,0 l/m 0,0 m/s (0 Bft) W-SW 240 0,00 min 0 lux 6,9 C 8,4 C
10.05.2004 01:20 8,2 C 8,8 C 90 % 1008 hPa 0,0 l/m 0,0 m/s (0 Bft) W-SW 240 0,00 min 0 lux 6,7 C 8,2 C
10.05.2004 01:25 8,2 C 8,8 C 90 % 1008 hPa 0,0 l/m 0,0 m/s (0 Bft) W-SW 240 0,00 min 0 lux 6,7 C 8,2 C
10.05.2004 01:30 8,2 C 8,8 C 90 % 1008 hPa 0,0 l/m 0,0 m/s (0 Bft) W-SW 240 0,00 min 0 lux 6,7 C 8,2 C
10.05.2004 01:35 8,2 C 8,8 C 90 % 1008 hPa 0,0 l/m 0,0 m/s (0 Bft) W-SW 240 0,00 min 0 lux 6,7 C 8,2 C
10.05.2004 01:40 8,2 C 8,8 C 90 % 1008 hPa 0,0 l/m 0,0 m/s (0 Bft) W-SW 240 0,00 min 0 lux 6,7 C 8,2 C
10.05.2004 01:45 8,1 C 8,7 C 90 % 1008 hPa 0,0 l/m 0,0 m/s (0 Bft) W-SW 240 0,00 min 0 lux 6,6 C 8,1 C
10.05.2004 01:50 8,1 C 8,8 C 90 % 1008 hPa 0,0 l/m 0,0 m/s (0 Bft) W-SW 240 0,00 min 0 lux 6,6 C 8,1 C
10.05.2004 01:55 8,1 C 8,7 C 90 % 1008 hPa 0,0 l/m 0,0 m/s (0 Bft) W-SW 240 0,00 min 0 lux 6,6 C 8,1 C
10.05.2004 02:00 8,1 C 8,8 C 91 % 1008 hPa 0,0 l/m 0,0 m/s (0 Bft) W-SW 240 0,00 min 0 lux 6,7 C 8,1 C
10.05.2004 02:05 8,2 C 8,8 C 91 % 1008 hPa 0,0 l/m 0,0 m/s (0 Bft) W-SW 240 0,00 min 0 lux 6,8 C 8,2 C
10.05.2004 02:10 8,2 C 8,8 C 91 % 1008 hPa 0,0 l/m 0,0 m/s (0 Bft) W-SW 240 0,00 min 0 lux 6,8 C 8,2 C
10.05.2004 02:15 8,2 C 8,9 C 91 % 1008 hPa 0,0 l/m 0,0 m/s (0 Bft) W-SW 240 0,00 min 0 lux 6,8 C 8,2 C
10.05.2004 02:20 8,2 C 8,8 C 91 % 1008 hPa 0,0 l/m 0,0 m/s (0 Bft) W-SW 240 0,00 min 0 lux 6,8 C 8,2 C
10.05.2004 02:25 8,1 C 8,8 C 91 % 1008 hPa 0,0 l/m 0,0 m/s (0 Bft) W-SW 240 0,00 min 0 lux 6,7 C 8,1 C
10.05.2004 02:30 8,1 C 8,9 C 91 % 1008 hPa 0,0 l/m 0,0 m/s (0 Bft) W-SW 240 0,00 min 0 lux 6,7 C 8,1 C
10.05.2004 02:35 8,1 C 8,8 C 91 % 1008 hPa 0,0 l/m 0,0 m/s (0 Bft) W-SW 240 0,00 min 0 lux 6,7 C 8,1 C
10.05.2004 02:40 8,1 C 8,9 C 91 % 1008 hPa 0,0 l/m 0,0 m/s (0 Bft) W-SW 240 0,00 min 0 lux 6,7 C 8,1 C
10.05.2004 02:45 8,1 C 8,9 C 91 % 1008 hPa 0,0 l/m 0,0 m/s (0 Bft) W-SW 240 0,00 min 0 lux 6,7 C 8,1 C
10.05.2004 02:50 8,1 C 8,9 C 91 % 1008 hPa 0,4 l/m 0,0 m/s (0 Bft) W-SW 240 0,00 min 0 lux 6,7 C 8,1 C
10.05.2004 02:55 8,2 C 8,8 C 91 % 1008 hPa 0,0 l/m 0,0 m/s (0 Bft) W-SW 240 0,00 min 0 lux 6,8 C 8,2 C
10.05.2004 03:00 8,2 C 8,9 C 91 % 1008 hPa 0,0 l/m 0,0 m/s (0 Bft) W-SW 240 0,00 min 0 lux 6,8 C 8,2 C
10.05.2004 03:05 8,2 C 8,9 C 91 % 1008 hPa 0,0 l/m 0,0 m/s (0 Bft) W-SW 240 0,00 min 0 lux 6,8 C 8,2 C
10.05.2004 03:10 8,2 C 8,9 C 91 % 1008 hPa 0,0 l/m 0,0 m/s (0 Bft) W-SW 240 0,00 min 0 lux 6,8 C 8,2 C
10.05.2004 03:15 8,2 C 8,9 C 91 % 1008 hPa 0,0 l/m 0,0 m/s (0 Bft) W-SW 240 0,00 min 0 lux 6,8 C 8,2 C
10.05.2004 03:20 8,2 C 8,8 C 91 % 1008 hPa 0,0 l/m 0,0 m/s (0 Bft) W-SW 240 0,00 min 0 lux 6,8 C 8,2 C
10.05.2004 03:25 8,2 C 8,8 C 91 % 1008 hPa 0,0 l/m 0,0 m/s (0 Bft) W-SW 240 0,00 min 0 lux 6,8 C 8,2 C
10.05.2004 03:30 8,2 C 8,9 C 91 % 1008 hPa 0,0 l/m 0,0 m/s (0 Bft) W-SW 240 0,00 min 0 lux 6,8 C 8,2 C
10.05.2004 03:35 8,2 C 8,9 C 91 % 1008 hPa 0,0 l/m 0,0 m/s (0 Bft) W-SW 240 0,00 min 0 lux 6,8 C 8,2 C
10.05.2004 03:40 8,1 C 8,9 C 91 % 1008 hPa 0,0 l/m 0,0 m/s (0 Bft) W-SW 240 0,00 min 0 lux 6,7 C 8,1 C
10.05.2004 03:45 8,1 C 8,8 C 91 % 1008 hPa 0,0 l/m 0,0 m/s (0 Bft) W-SW 240 0,00 min 0 lux 6,7 C 8,1 C
10.05.2004 03:50 8,2 C 8,9 C 91 % 1008 hPa 0,0 l/m 0,0 m/s (0 Bft) W-SW 240 0,00 min 0 lux 6,8 C 8,2 C
10.05.2004 03:55 8,2 C 8,8 C 91 % 1008 hPa 0,0 l/m 0,0 m/s (0 Bft) W-SW 240 0,00 min 0 lux 6,8 C 8,2 C
10.05.2004 04:00 8,2 C 8,8 C 91 % 1008 hPa 0,0 l/m 0,0 m/s (0 Bft) W-SW 240 0,00 min 0 lux 6,8 C 8,2 C
10.05.2004 04:05 8,2 C 8,9 C 91 % 1008 hPa 0,0 l/m 0,0 m/s (0 Bft) W-SW 240 0,00 min 0 lux 6,8 C 8,2 C
10.05.2004 04:10 8,2 C 8,9 C 91 % 1008 hPa 0,0 l/m 0,0 m/s (0 Bft) W-SW 240 0,00 min 0 lux 6,8 C 8,2 C
10.05.2004 04:15 8,2 C 8,8 C 91 % 1008 hPa 0,0 l/m 0,0 m/s (0 Bft) W-SW 240 0,00 min 0 lux 6,8 C 8,2 C
10.05.2004 04:20 8,2 C 8,8 C 91 % 1008 hPa 0,0 l/m 0,0 m/s (0 Bft) W-SW 240 0,00 min 0 lux 6,8 C 8,2 C
10.05.2004 04:25 8,1 C 8,8 C 91 % 1008 hPa 0,0 l/m 0,0 m/s (0 Bft) W-SW 240 0,00 min 0 lux 6,7 C 8,1 C
10.05.2004 04:30 8,1 C 8,9 C 91 % 1008 hPa 0,0 l/m 0,0 m/s (0 Bft) W-SW 240 0,00 min 0 lux 6,7 C 8,1 C
10.05.2004 04:35 8,1 C 8,9 C 91 % 1008 hPa 0,0 l/m 0,0 m/s (0 Bft) W-SW 240 0,00 min 0 lux 6,7 C 8,1 C
10.05.2004 04:40 8,1 C 8,8 C 91 % 1008 hPa 0,0 l/m 0,0 m/s (0 Bft) W-SW 240 0,00 min 0 lux 6,7 C 8,1 C
10.05.2004 04:45 8,0 C 8,8 C 91 % 1008 hPa 0,0 l/m 0,0 m/s (0 Bft) W-SW 240 0,00 min 0 lux 6,6 C 8,0 C
10.05.2004 04:50 8,1 C 8,8 C 91 % 1008 hPa 0,0 l/m 0,0 m/s (0 Bft) W-SW 240 0,00 min 0 lux 6,7 C 8,1 C
10.05.2004 04:55 8,1 C 8,8 C 91 % 1008 hPa 0,0 l/m 0,0 m/s (0 Bft) W-SW 240 0,00 min 0 lux 6,7 C 8,1 C
10.05.2004 05:00 8,2 C 8,8 C 92 % 1009 hPa 0,0 l/m 0,0 m/s (0 Bft) W-SW 240 0,00 min 0 lux 7,0 C 8,2 C
10.05.2004 05:05 8,2 C 8,8 C 92 % 1009 hPa 0,0 l/m 0,0 m/s (0 Bft) W-SW 240 0,00 min 0 lux 7,0 C 8,2 C
10.05.2004 05:10 8,2 C 8,7 C 92 % 1008 hPa 0,0 l/m 0,0 m/s (0 Bft) W-SW 240 0,00 min 0 lux 7,0 C 8,2 C
10.05.2004 05:15 8,2 C 8,7 C 92 % 1008 hPa 0,0 l/m 0,0 m/s (0 Bft) W-SW 240 0,00 min 0 lux 7,0 C 8,2 C
10.05.2004 05:20 8,2 C 8,8 C 92 % 1009 hPa 0,0 l/m 0,0 m/s (0 Bft) W-SW 240 0,00 min 0 lux 7,0 C 8,2 C
10.05.2004 05:25 8,2 C 8,8 C 92 % 1009 hPa 0,0 l/m 0,0 m/s (0 Bft) W-SW 240 0,00 min 0 lux 7,0 C 8,2 C
10.05.2004 05:30 8,2 C 8,8 C 92 % 1009 hPa 0,0 l/m 0,0 m/s (0 Bft) W-SW 240 0,00 min 0 lux 7,0 C 8,2 C
10.05.2004 05:35 8,2 C 8,8 C 92 % 1009 hPa 0,0 l/m 0,0 m/s (0 Bft) W-SW 240 0,00 min 0 lux 7,0 C 8,2 C
10.05.2004 05:40 8,2 C 8,8 C 92 % 1009 hPa 0,0 l/m 0,0 m/s (0 Bft) W-SW 240 0,00 min 0 lux 7,0 C 8,2 C
10.05.2004 05:45 8,3 C 8,8 C 92 % 1009 hPa 0,0 l/m 0,0 m/s (0 Bft) W-SW 240 0,00 min 57 lux 7,1 C 8,3 C
10.05.2004 05:50 8,3 C 8,8 C 92 % 1009 hPa 0,0 l/m 0,0 m/s (0 Bft) W-SW 240 0,00 min 89 lux 7,1 C 8,3 C
10.05.2004 05:55 8,3 C 8,8 C 92 % 1009 hPa 0,0 l/m 0,0 m/s (0 Bft) W-SW 240 0,00 min 154 lux 7,1 C 8,3 C
10.05.2004 06:00 8,3 C 8,8 C 92 % 1009 hPa 0,0 l/m 0,0 m/s (0 Bft) W-SW 240 0,00 min 246 lux 7,1 C 8,3 C
10.05.2004 06:05 8,2 C 8,8 C 91 % 1009 hPa 0,0 l/m 0,0 m/s (0 Bft) W-SW 240 0,00 min 305 lux 6,8 C 8,2 C
10.05.2004 06:10 8,2 C 8,9 C 92 % 1009 hPa 0,0 l/m 0,0 m/s (0 Bft) W-SW 240 0,00 min 354 lux 7,0 C 8,2 C
10.05.2004 06:15 8,2 C 8,8 C 92 % 1009 hPa 0,0 l/m 0,0 m/s (0 Bft) W-SW 240 0,00 min 397 lux 7,0 C 8,2 C
10.05.2004 06:20 8,2 C 8,8 C 92 % 1009 hPa 0,0 l/m 0,0 m/s (0 Bft) W-SW 240 0,00 min 484 lux 7,0 C 8,2 C
10.05.2004 06:25 8,2 C 8,8 C 92 % 1009 hPa 0,0 l/m 0,0 m/s (0 Bft) W-SW 240 0,00 min 748 lux 7,0 C 8,2 C
10.05.2004 06:30 8,2 C 8,8 C 92 % 1009 hPa 0,0 l/m 0,0 m/s (0 Bft) W-SW 240 0,00 min 1,05 klux 7,0 C 8,2 C
10.05.2004 06:35 8,2 C 8,8 C 92 % 1009 hPa 0,0 l/m 0,0 m/s (0 Bft) W-SW 240 0,00 min 1,28 klux 7,0 C 8,2 C
10.05.2004 06:40 8,2 C 8,8 C 92 % 1009 hPa 0,0 l/m 0,0 m/s (0 Bft) W-SW 240 0,00 min 1,46 klux 7,0 C 8,2 C
10.05.2004 06:45 8,2 C 8,8 C 92 % 1009 hPa 0,0 l/m 0,0 m/s (0 Bft) W-SW 240 0,00 min 1,42 klux 7,0 C 8,2 C
10.05.2004 06:50 8,2 C 8,9 C 92 % 1009 hPa 0,0 l/m 0,4 m/s (0 Bft) W-SW 240 0,00 min 1,30 klux 7,0 C 8,2 C
10.05.2004 06:55 8,2 C 8,8 C 92 % 1009 hPa 0,0 l/m 0,4 m/s (0 Bft) SW 230 0,00 min 1,21 klux 7,0 C 8,2 C
10.05.2004 07:00 8,2 C 8,8 C 92 % 1009 hPa 0,0 l/m 0,4 m/s (0 Bft) W-SW22.5 240 0,00 min 1,37 klux 7,0 C 8,2 C
10.05.2004 07:05 8,2 C 8,8 C 92 % 1009 hPa 0,0 l/m 0,4 m/s (0 Bft) W-SW22.5 240 0,00 min 1,86 klux 7,0 C 8,2 C
10.05.2004 07:10 8,4 C 8,8 C 92 % 1009 hPa 0,0 l/m 0,0 m/s (0 Bft) SW 235 0,00 min 2,43 klux 7,2 C 8,4 C
10.05.2004 07:15 8,5 C 8,8 C 92 % 1009 hPa 0,0 l/m 0,0 m/s (0 Bft) SW 235 0,00 min 3,33 klux 7,3 C 8,5 C
10.05.2004 07:20 8,5 C 8,9 C 92 % 1009 hPa 0,0 l/m 0,0 m/s (0 Bft) SW 230 0,00 min 4,49 klux 7,3 C 8,5 C
10.05.2004 07:25 8,6 C 9,0 C 92 % 1009 hPa 0,0 l/m 0,0 m/s (0 Bft) SW 230 0,00 min 5,32 klux 7,4 C 8,6 C
10.05.2004 07:30 8,6 C 9,0 C 92 % 1009 hPa 0,0 l/m 0,0 m/s (0 Bft) SW 230 0,00 min 5,77 klux 7,4 C 8,6 C
10.05.2004 07:35 8,7 C 9,0 C 92 % 1009 hPa 0,0 l/m 0,0 m/s (0 Bft) SW 230 0,00 min 5,78 klux 7,5 C 8,7 C
10.05.2004 07:40 8,9 C 9,1 C 92 % 1009 hPa 0,0 l/m 0,2 m/s (0 Bft) SW 230 0,00 min 7,89 klux 7,7 C 8,9 C
10.05.2004 07:45 8,9 C 9,1 C 92 % 1009 hPa 0,0 l/m 0,0 m/s (0 Bft) SW 220 0,00 min 7,54 klux 7,7 C 8,9 C
10.05.2004 07:50 8,9 C 9,1 C 91 % 1009 hPa 0,0 l/m 0,6 m/s (0 Bft) SW22.5 235 0,00 min 8,11 klux 7,5 C 8,9 C
10.05.2004 07:55 8,9 C 9,3 C 91 % 1009 hPa 0,0 l/m 1,4 m/s (1 Bft) SW 235 0,00 min 7,78 klux 7,5 C 8,9 C
10.05.2004 08:00 9,0 C 9,3 C 90 % 1010 hPa 0,0 l/m 0,2 m/s (0 Bft) SW 230 0,00 min 8,29 klux 7,4 C 9,0 C
10.05.2004 08:05 9,0 C 9,4 C 90 % 1010 hPa 0,0 l/m 1,0 m/s (0 Bft) SW22.5 235 0,00 min 8,48 klux 7,4 C 9,0 C
10.05.2004 08:10 9,5 C 9,5 C 90 % 1010 hPa 0,0 l/m 1,4 m/s (1 Bft) SW22.5 235 0,00 min 10,6 klux 7,9 C 9,5 C
10.05.2004 08:15 9,5 C 9,6 C 90 % 1010 hPa 0,0 l/m 1,5 m/s (1 Bft) SW22.5 230 0,00 min 16,0 klux 7,9 C 9,5 C
10.05.2004 08:20 9,5 C 9,8 C 89 % 1010 hPa 0,0 l/m 2,0 m/s (1 Bft) W-SW22.5 250 0,00 min 17,3 klux 7,8 C 9,0 C
10.05.2004 08:25 9,5 C 9,8 C 89 % 1010 hPa 0,0 l/m 1,9 m/s (1 Bft) W-SW22.5 245 0,00 min 15,5 klux 7,8 C 9,3 C
10.05.2004 08:30 9,6 C 10,0 C 89 % 1010 hPa 0,0 l/m 2,0 m/s (1 Bft) W-SW22.5 250 0,00 min 18,1 klux 7,9 C 9,1 C
10.05.2004 08:35 9,9 C 10,2 C 88 % 1010 hPa 0,0 l/m 1,9 m/s (1 Bft) SW22.5 230 0,00 min 19,5 klux 8,0 C 9,7 C
10.05.2004 08:40 9,9 C 10,3 C 88 % 1010 hPa 0,0 l/m 1,4 m/s (1 Bft) W-SW45 250 0,00 min 18,6 klux 8,0 C 9,9 C
10.05.2004 08:45 10,2 C 10,4 C 86 % 1010 hPa 0,0 l/m 2,3 m/s (1 Bft) SW22.5 235 0,00 min 17,3 klux 8,0 C 8,8 C
10.05.2004 08:50 10,2 C 10,5 C 86 % 1010 hPa 0,0 l/m 1,9 m/s (1 Bft) SW45 230 0,00 min 17,4 klux 8,0 C 10,0 C
10.05.2004 08:55 10,3 C 10,6 C 85 % 1010 hPa 0,0 l/m 1,4 m/s (1 Bft) W-SW 240 0,00 min 13,6 klux 7,9 C 10,3 C
10.05.2004 09:00 10,1 C 10,6 C 85 % 1010 hPa 0,0 l/m 2,0 m/s (1 Bft) SW22.5 230 0,00 min 13,4 klux 7,7 C 9,5 C
10.05.2004 09:05 10,2 C 10,7 C 85 % 1010 hPa 0,0 l/m 1,7 m/s (1 Bft) W-SW22.5 250 0,00 min 13,8 klux 7,8 C 10,2 C
10.05.2004 09:10 10,4 C 10,7 C 85 % 1010 hPa 0,0 l/m 1,5 m/s (1 Bft) SW22.5 230 0,00 min 18,2 klux 8,0 C 10,4 C
10.05.2004 09:15 10,6 C 10,8 C 85 % 1010 hPa 0,0 l/m 1,7 m/s (1 Bft) W-SW22.5 245 0,00 min 19,2 klux 8,2 C 10,6 C
10.05.2004 09:20 10,6 C 10,9 C 84 % 1010 hPa 0,0 l/m 2,2 m/s (1 Bft) W-SW22.5 250 0,00 min 21,0 klux 8,0 C 9,5 C
10.05.2004 09:25 10,7 C 11,1 C 84 % 1010 hPa 0,0 l/m 2,2 m/s (1 Bft) W-SW22.5 240 0,00 min 23,2 klux 8,1 C 9,7 C
10.05.2004 09:30 10,7 C 11,1 C 84 % 1010 hPa 0,0 l/m 2,5 m/s (1 Bft) W-SW22.5 240 0,00 min 19,7 klux 8,1 C 9,0 C
10.05.2004 09:35 10,8 C 11,2 C 83 % 1010 hPa 0,0 l/m 2,6 m/s (1 Bft) W-SW 250 0,00 min 18,8 klux 8,0 C 8,8 C
10.05.2004 09:40 11,0 C 11,3 C 83 % 1010 hPa 0,0 l/m 2,2 m/s (1 Bft) W-SW22.5 250 0,00 min 18,5 klux 8,2 C 10,0 C
10.05.2004 09:45 10,8 C 11,3 C 83 % 1010 hPa 0,0 l/m 2,2 m/s (1 Bft) W-SW22.5 250 0,00 min 19,2 klux 8,0 C 9,8 C
10.05.2004 09:50 11,0 C 11,4 C 83 % 1010 hPa 0,0 l/m 2,5 m/s (1 Bft) SW22.5 225 0,00 min 20,8 klux 8,2 C 9,3 C
10.05.2004 09:55 10,9 C 11,5 C 82 % 1010 hPa 0,0 l/m 3,0 m/s (1 Bft) SW22.5 235 0,00 min 19,8 klux 7,9 C 8,2 C
10.05.2004 10:00 11,0 C 11,5 C 82 % 1010 hPa 0,0 l/m 2,1 m/s (1 Bft) W22.5 260 0,00 min 20,6 klux 8,0 C 10,3 C
10.05.2004 10:05 11,0 C 11,6 C 82 % 1010 hPa 0,0 l/m 2,4 m/s (1 Bft) W-SW22.5 250 0,00 min 19,7 klux 8,0 C 9,6 C
10.05.2004 10:10 11,1 C 11,7 C 81 % 1010 hPa 0,0 l/m 1,6 m/s (1 Bft) W-SW45 240 0,00 min 18,2 klux 8,0 C 11,1 C
10.05.2004 10:15 11,3 C 11,7 C 81 % 1010 hPa 0,0 l/m 2,2 m/s (1 Bft) SW22.5 235 0,00 min 18,8 klux 8,2 C 10,2 C
10.05.2004 10:20 11,3 C 11,8 C 81 % 1010 hPa 0,0 l/m 1,4 m/s (1 Bft) SW22.5 230 0,00 min 20,6 klux 8,2 C 11,3 C
10.05.2004 10:25 11,4 C 11,8 C 80 % 1011 hPa 0,0 l/m 1,2 m/s (1 Bft) W-SW22.5 240 0,00 min 19,9 klux 8,1 C 11,4 C
10.05.2004 10:30 11,3 C 11,9 C 80 % 1011 hPa 0,0 l/m 2,4 m/s (1 Bft) W-SW22.5 240 0,00 min 20,4 klux 8,0 C 9,8 C
10.05.2004 10:35 11,5 C 12,0 C 80 % 1011 hPa 0,0 l/m 1,9 m/s (1 Bft) W-SW 240 0,00 min 21,0 klux 8,2 C 11,2 C
10.05.2004 10:40 11,6 C 12,0 C 79 % 1011 hPa 0,0 l/m 2,7 m/s (1 Bft) W-SW22.5 240 0,00 min 25,2 klux 8,1 C 9,5 C
10.05.2004 10:45 12,0 C 12,0 C 78 % 1011 hPa 0,0 l/m 1,8 m/s (1 Bft) W-SW22.5 240 0,00 min 30,9 klux 8,3 C 11,9 C
10.05.2004 10:50 11,9 C 12,3 C 78 % 1011 hPa 0,0 l/m 1,6 m/s (1 Bft) SW45 235 0,00 min 34,7 klux 8,2 C 11,9 C
10.05.2004 10:55 12,6 C 12,4 C 76 % 1011 hPa 0,0 l/m 2,3 m/s (1 Bft) SW22.5 225 0,00 min 31,7 klux 8,5 C 11,4 C
10.05.2004 11:00 12,5 C 12,6 C 75 % 1011 hPa 0,0 l/m 2,2 m/s (1 Bft) SW22.5 225 0,00 min 32,1 klux 8,2 C 11,5 C
10.05.2004 11:05 12,5 C 12,7 C 75 % 1011 hPa 0,0 l/m 2,5 m/s (1 Bft) W-SW22.5 245 0,00 min 32,0 klux 8,2 C 11,0 C
10.05.2004 11:10 12,5 C 12,8 C 74 % 1011 hPa 0,0 l/m 2,0 m/s (1 Bft) W-SW45 245 0,00 min 30,3 klux 8,0 C 12,0 C
10.05.2004 11:15 12,6 C 12,9 C 74 % 1011 hPa 0,0 l/m 2,6 m/s (1 Bft) SW45 230 0,00 min 29,9 klux 8,1 C 10,9 C
10.05.2004 11:20 12,6 C 13,1 C 73 % 1011 hPa 0,0 l/m 1,3 m/s (1 Bft) SW22.5 215 0,00 min 28,9 klux 7,9 C 12,6 C
10.05.2004 11:25 12,9 C 13,2 C 73 % 1011 hPa 0,0 l/m 0,2 m/s (0 Bft) SW22.5 215 0,00 min 28,6 klux 8,2 C 12,9 C
10.05.2004 11:30 13,3 C 13,3 C 72 % 1011 hPa 0,0 l/m 0,3 m/s (0 Bft) SW45 230 0,00 min 34,1 klux 8,4 C 13,3 C
10.05.2004 11:35 12,9 C 13,4 C 72 % 1011 hPa 0,0 l/m 2,0 m/s (1 Bft) SW22.5 225 0,00 min 31,0 klux 8,0 C 12,4 C
10.05.2004 11:40 12,8 C 13,4 C 73 % 1011 hPa 0,0 l/m 2,2 m/s (1 Bft) SW22.5 225 0,00 min 26,4 klux 8,1 C 11,9 C
10.05.2004 11:45 12,5 C 13,3 C 73 % 1011 hPa 0,0 l/m 2,0 m/s (1 Bft) SW45 235 0,00 min 20,4 klux 7,8 C 12,0 C
10.05.2004 11:50 12,6 C 13,3 C 74 % 1011 hPa 0,0 l/m 1,7 m/s (1 Bft) W-SW22.5 240 0,00 min 19,3 klux 8,1 C 12,6 C
10.05.2004 11:55 12,7 C 13,3 C 74 % 1011 hPa 0,0 l/m 1,7 m/s (1 Bft) W-SW22.5 245 0,00 min 16,9 klux 8,2 C 12,7 C
10.05.2004 12:00 12,5 C 13,2 C 74 % 1011 hPa 0,0 l/m 2,2 m/s (1 Bft) W-SW22.5 245 0,00 min 14,2 klux 8,0 C 11,6 C
10.05.2004 12:05 12,3 C 13,2 C 74 % 1011 hPa 0,0 l/m 3,1 m/s (1 Bft) W-SW22.5 250 0,00 min 13,1 klux 7,8 C 9,6 C
10.05.2004 12:10 12,3 C 13,1 C 75 % 1011 hPa 0,0 l/m 2,5 m/s (1 Bft) SW22.5 235 0,00 min 13,2 klux 8,0 C 10,7 C
10.05.2004 12:15 12,3 C 13,1 C 75 % 1011 hPa 0,0 l/m 2,4 m/s (1 Bft) W-SW22.5 245 0,00 min 13,2 klux 8,0 C 10,8 C
10.05.2004 12:20 12,4 C 13,0 C 75 % 1011 hPa 0,0 l/m 1,8 m/s (1 Bft) W-SW22.5 240 0,00 min 14,5 klux 8,1 C 12,3 C
10.05.2004 12:25 12,4 C 13,0 C 74 % 1011 hPa 0,0 l/m 2,4 m/s (1 Bft) W-SW22.5 250 0,00 min 15,1 klux 7,9 C 11,0 C
10.05.2004 12:30 12,5 C 13,0 C 74 % 1011 hPa 0,0 l/m 2,9 m/s (1 Bft) W-SW22.5 250 0,00 min 19,6 klux 8,0 C 10,2 C
10.05.2004 12:35 12,7 C 13,1 C 74 % 1011 hPa 0,0 l/m 2,3 m/s (1 Bft) W-SW 255 0,00 min 21,4 klux 8,2 C 11,6 C
10.05.2004 12:40 13,0 C 13,2 C 72 % 1011 hPa 0,0 l/m 1,0 m/s (0 Bft) W-SW22.5 250 0,00 min 32,2 klux 8,1 C 13,0 C
10.05.2004 12:45 13,8 C 13,5 C 71 % 1011 hPa 0,0 l/m 0,0 m/s (0 Bft) S-SW22.5 195 0,00 min 38,8 klux 8,6 C 13,8 C
10.05.2004 12:50 14,1 C 13,8 C 65 % 1011 hPa 0,0 l/m 0,0 m/s (0 Bft) W-SW 255 0,00 min 43,1 klux 7,6 C 14,1 C
10.05.2004 12:55 14,7 C 14,0 C 63 % 1011 hPa 0,0 l/m 1,6 m/s (1 Bft) W45 265 0,00 min 43,6 klux 7,7 C 14,7 C
10.05.2004 13:00 14,8 C 14,2 C 64 % 1011 hPa 0,0 l/m 0,4 m/s (0 Bft) W-NW67.5 295 0,00 min 40,4 klux 8,1 C 14,8 C
10.05.2004 13:05 14,9 C 14,5 C 65 % 1011 hPa 0,0 l/m 2,3 m/s (1 Bft) W-SW22.5 240 0,00 min 40,6 klux 8,4 C 13,8 C
10.05.2004 13:10 15,4 C 14,6 C 63 % 1011 hPa 0,0 l/m 1,1 m/s (1 Bft) S-SO45 160 0,00 min 40,9 klux 8,4 C 15,4 C
10.05.2004 13:15 15,3 C 14,8 C 61 % 1011 hPa 0,0 l/m 0,9 m/s (0 Bft) S67.5 170 0,00 min 41,4 klux 7,8 C 15,3 C
10.05.2004 13:20 15,9 C 14,9 C 62 % 1011 hPa 0,0 l/m 0,0 m/s (0 Bft) SW 225 0,00 min 41,7 klux 8,6 C 15,9 C
10.05.2004 13:25 15,0 C 15,2 C 59 % 1011 hPa 0,0 l/m 0,0 m/s (0 Bft) S-SW45 195 0,00 min 44,0 klux 7,1 C 15,0 C
10.05.2004 13:30 15,6 C 15,4 C 60 % 1011 hPa 0,0 l/m 1,1 m/s (1 Bft) NO 50 0,00 min 54,1 klux 7,9 C 15,6 C
10.05.2004 13:35 15,6 C 15,7 C 61 % 1011 hPa 0,0 l/m 0,2 m/s (0 Bft) SW22.5 220 0,00 min 44,7 klux 8,1 C 15,6 C
10.05.2004 13:40 16,1 C 16,3 C 61 % 1011 hPa 0,0 l/m 1,9 m/s (1 Bft) S-SW67.5 210 5,00 min 71,8 klux 8,6 C 15,9 C
10.05.2004 13:45 15,8 C 16,6 C 59 % 1011 hPa 0,0 l/m 2,1 m/s (1 Bft) W-SW22.5 240 5,00 min 76,5 klux 7,8 C 15,3 C
10.05.2004 13:50 16,3 C 17,1 C 58 % 1011 hPa 0,0 l/m 3,1 m/s (1 Bft) SW45 225 5,00 min 77,7 klux 8,0 C 14,0 C
10.05.2004 13:55 15,9 C 17,8 C 60 % 1011 hPa 0,0 l/m 3,0 m/s (1 Bft) W-SW22.5 240 5,00 min 72,2 klux 8,1 C 13,7 C
10.05.2004 14:00 15,6 C 18,0 C 61 % 1011 hPa 0,0 l/m 3,6 m/s (1 Bft) SW67.5 220 0,00 min 37,9 klux 8,1 C 12,6 C
10.05.2004 14:05 15,3 C 17,9 C 61 % 1011 hPa 0,0 l/m 3,9 m/s (1 Bft) W-SW22.5 255 0,00 min 32,9 klux 7,8 C 11,9 C
10.05.2004 14:10 14,6 C 17,5 C 62 % 1011 hPa 0,0 l/m 2,9 m/s (1 Bft) SW67.5 225 0,00 min 26,4 klux 7,4 C 12,4 C
10.05.2004 14:15 14,6 C 17,2 C 63 % 1011 hPa 0,0 l/m 3,6 m/s (1 Bft) W-SW45 240 0,00 min 28,3 klux 7,6 C 11,4 C
10.05.2004 14:20 14,7 C 17,1 C 63 % 1011 hPa 0,0 l/m 4,6 m/s (1 Bft) W-SW45 245 0,00 min 30,4 klux 7,7 C 10,4 C
10.05.2004 14:25 14,8 C 16,8 C 63 % 1011 hPa 0,0 l/m 4,2 m/s (1 Bft) W-SW45 250 0,00 min 34,3 klux 7,8 C 10,9 C
10.05.2004 14:30 14,9 C 16,8 C 63 % 1011 hPa 0,0 l/m 5,6 m/s (1 Bft) W-SW45 245 0,00 min 40,4 klux 7,9 C 9,6 C
10.05.2004 14:35 15,4 C 16,8 C 60 % 1011 hPa 0,0 l/m 3,8 m/s (1 Bft) SW45 230 0,00 min 57,3 klux 7,7 C 12,1 C
10.05.2004 14:40 15,6 C 16,8 C 60 % 1011 hPa 0,0 l/m 3,3 m/s (1 Bft) SW22.5 225 0,00 min 40,1 klux 7,9 C 13,1 C
10.05.2004 14:45 15,8 C 16,8 C 59 % 1011 hPa 0,0 l/m 2,5 m/s (1 Bft) SW67.5 215 0,00 min 40,8 klux 7,8 C 14,5 C
10.05.2004 14:50 15,8 C 16,9 C 57 % 1011 hPa 0,0 l/m 2,2 m/s (1 Bft) W-SW22.5 250 0,00 min 40,4 klux 7,3 C 14,9 C
10.05.2004 14:55 15,8 C 17,0 C 57 % 1011 hPa 0,0 l/m 1,8 m/s (1 Bft) W22.5 265 0,00 min 40,6 klux 7,3 C 15,8 C
10.05.2004 15:00 16,3 C 17,1 C 57 % 1011 hPa 0,0 l/m 2,9 m/s (1 Bft) SW67.5 225 0,00 min 41,9 klux 7,8 C 14,4 C
10.05.2004 15:05 16,3 C 17,2 C 56 % 1011 hPa 0,0 l/m 1,1 m/s (1 Bft) SW22.5 230 0,00 min 42,1 klux 7,5 C 16,3 C
10.05.2004 15:10 16,3 C 17,3 C 56 % 1011 hPa 0,0 l/m 2,2 m/s (1 Bft) W-SW45 240 0,00 min 47,4 klux 7,5 C 15,6 C
10.05.2004 15:15 16,4 C 17,7 C 55 % 1011 hPa 0,0 l/m 2,0 m/s (1 Bft) W-SW22.5 240 0,00 min 55,6 klux 7,3 C 15,9 C
10.05.2004 15:20 16,4 C 17,8 C 57 % 1011 hPa 0,0 l/m 2,3 m/s (1 Bft) W-SW22.5 245 0,00 min 40,3 klux 7,9 C 15,4 C
10.05.2004 15:25 15,8 C 17,6 C 59 % 1011 hPa 0,0 l/m 4,1 m/s (1 Bft) W-SW22.5 255 0,00 min 39,4 klux 7,8 C 12,3 C
10.05.2004 15:30 15,8 C 17,5 C 59 % 1011 hPa 0,0 l/m 4,4 m/s (1 Bft) W45 275 0,00 min 35,4 klux 7,8 C 11,9 C
10.05.2004 15:35 15,4 C 17,6 C 57 % 1011 hPa 0,0 l/m 3,6 m/s (1 Bft) W22.5 260 0,00 min 35,4 klux 6,9 C 12,3 C
10.05.2004 15:40 15,8 C 17,7 C 59 % 1011 hPa 0,0 l/m 2,7 m/s (1 Bft) SW45 235 0,00 min 55,4 klux 7,8 C 14,1 C
10.05.2004 15:45 15,6 C 17,8 C 58 % 1011 hPa 0,0 l/m 3,4 m/s (1 Bft) W-SW45 245 0,00 min 46,2 klux 7,4 C 12,9 C
10.05.2004 15:50 16,1 C 18,1 C 57 % 1011 hPa 0,0 l/m 3,3 m/s (1 Bft) W-SW22.5 255 0,00 min 49,8 klux 7,6 C 13,5 C
10.05.2004 15:55 17,1 C 19,5 C 55 % 1011 hPa 0,0 l/m 3,6 m/s (1 Bft) W-SW22.5 250 5,00 min 96,2 klux 8,0 C 14,4 C
10.05.2004 16:00 16,6 C 19,5 C 55 % 1011 hPa 0,0 l/m 3,8 m/s (1 Bft) W-SW22.5 250 5,00 min 92,6 klux 7,5 C 13,6 C
10.05.2004 16:05 16,6 C 20,8 C 55 % 1011 hPa 0,0 l/m 4,2 m/s (1 Bft) W-SW45 250 5,00 min 67,2 klux 7,5 C 13,1 C
10.05.2004 16:10 16,7 C 20,8 C 55 % 1011 hPa 0,0 l/m 2,7 m/s (1 Bft) W-SW45 240 5,00 min 60,4 klux 7,6 C 15,1 C
10.05.2004 16:15 17,0 C 20,7 C 55 % 1011 hPa 0,0 l/m 3,6 m/s (1 Bft) W-SW45 255 0,00 min 50,3 klux 7,9 C 14,2 C
10.05.2004 16:20 17,1 C 20,4 C 54 % 1011 hPa 0,0 l/m 3,6 m/s (1 Bft) SW22.5 230 0,00 min 49,9 klux 7,7 C 14,4 C
10.05.2004 16:25 16,9 C 20,4 C 55 % 1011 hPa 0,0 l/m 4,4 m/s (1 Bft) W-SW45 240 5,00 min 92,6 klux 7,8 C 13,2 C
10.05.2004 16:30 17,2 C 20,9 C 52 % 1011 hPa 0,0 l/m 4,0 m/s (1 Bft) W-SW45 240 5,00 min 53,5 klux 7,3 C 14,0 C
10.05.2004 16:35 17,4 C 20,9 C 53 % 1011 hPa 0,0 l/m 5,5 m/s (1 Bft) W-SW45 240 5,00 min 51,4 klux 7,7 C 12,9 C
10.05.2004 16:40 17,3 C 20,3 C 52 % 1011 hPa 0,0 l/m 3,9 m/s (1 Bft) SW45 230 5,00 min 53,5 klux 7,3 C 14,2 C
10.05.2004 16:45 17,0 C 19,9 C 51 % 1011 hPa 0,0 l/m 4,0 m/s (1 Bft) SW22.5 225 0,00 min 47,7 klux 6,8 C 13,8 C
10.05.2004 16:50 17,0 C 19,8 C 51 % 1011 hPa 0,0 l/m 4,4 m/s (1 Bft) SW45 230 0,00 min 47,6 klux 6,8 C 13,4 C
10.05.2004 16:55 17,1 C 19,9 C 52 % 1011 hPa 0,0 l/m 4,2 m/s (1 Bft) W-SW45 240 5,00 min 83,4 klux 7,2 C 13,7 C
10.05.2004 17:00 18,0 C 21,5 C 51 % 1011 hPa 0,0 l/m 2,3 m/s (1 Bft) SW67.5 220 5,00 min 80,0 klux 7,7 C 17,2 C
10.05.2004 17:05 17,7 C 22,1 C 50 % 1011 hPa 0,0 l/m 4,3 m/s (1 Bft) SW45 235 5,00 min 71,6 klux 7,1 C 14,3 C
10.05.2004 17:10 18,0 C 21,8 C 50 % 1011 hPa 0,0 l/m 2,8 m/s (1 Bft) SW45 225 5,00 min 63,8 klux 7,4 C 16,4 C
10.05.2004 17:15 17,4 C 21,3 C 52 % 1011 hPa 0,0 l/m 4,2 m/s (1 Bft) SW45 230 0,00 min 39,7 klux 7,4 C 14,1 C
10.05.2004 17:20 17,2 C 21,3 C 52 % 1011 hPa 0,0 l/m 3,7 m/s (1 Bft) W-SW67.5 240 5,00 min 61,4 klux 7,3 C 14,4 C
10.05.2004 17:25 17,2 C 21,4 C 50 % 1011 hPa 0,0 l/m 3,7 m/s (1 Bft) SW45 235 5,00 min 61,9 klux 6,7 C 14,4 C
10.05.2004 17:30 18,3 C 21,8 C 50 % 1011 hPa 0,0 l/m 3,4 m/s (1 Bft) SW22.5 230 5,00 min 70,1 klux 7,7 C 16,0 C
10.05.2004 17:35 18,1 C 22,0 C 49 % 1011 hPa 0,0 l/m 3,0 m/s (1 Bft) SW45 225 5,00 min 48,8 klux 7,2 C 16,3 C
10.05.2004 17:40 17,7 C 21,9 C 50 % 1011 hPa 0,0 l/m 3,2 m/s (1 Bft) SW45 235 5,00 min 63,7 klux 7,1 C 15,5 C
10.05.2004 17:45 17,4 C 21,3 C 52 % 1011 hPa 0,0 l/m 3,8 m/s (1 Bft) W-SW45 240 0,00 min 27,8 klux 7,4 C 14,5 C
10.05.2004 17:50 16,8 C 20,3 C 53 % 1011 hPa 0,0 l/m 3,4 m/s (1 Bft) W-SW45 240 0,00 min 22,8 klux 7,2 C 14,3 C
10.05.2004 17:55 16,6 C 19,5 C 53 % 1011 hPa 0,0 l/m 3,3 m/s (1 Bft) W-SW45 245 0,00 min 17,4 klux 7,0 C 14,1 C
10.05.2004 18:00 16,4 C 19,2 C 56 % 1011 hPa 0,0 l/m 2,9 m/s (1 Bft) W-SW45 245 0,00 min 16,5 klux 7,6 C 14,4 C
10.05.2004 18:05 16,4 C 18,7 C 57 % 1011 hPa 0,0 l/m 2,1 m/s (1 Bft) W-SW22.5 240 0,00 min 14,2 klux 7,9 C 15,7 C
10.05.2004 18:10 16,3 C 18,4 C 58 % 1011 hPa 0,0 l/m 1,1 m/s (0 Bft) W-SW45 245 0,00 min 15,2 klux 8,0 C 16,3 C
10.05.2004 18:15 16,1 C 18,3 C 58 % 1011 hPa 0,0 l/m 3,3 m/s (1 Bft) W-SW45 240 0,00 min 14,6 klux 7,8 C 13,6 C
10.05.2004 18:20 16,1 C 18,0 C 58 % 1011 hPa 0,0 l/m 3,3 m/s (1 Bft) W-SW45 250 0,00 min 14,1 klux 7,8 C 13,5 C
10.05.2004 18:25 15,9 C 17,8 C 58 % 1011 hPa 0,0 l/m 4,9 m/s (1 Bft) W-SW22.5 255 0,00 min 12,7 klux 7,6 C 11,5 C
10.05.2004 18:30 15,8 C 17,5 C 58 % 1011 hPa 0,0 l/m 4,4 m/s (1 Bft) W-SW45 255 0,00 min 13,9 klux 7,6 C 11,9 C
10.05.2004 18:35 15,8 C 17,4 C 58 % 1011 hPa 0,0 l/m 4,0 m/s (1 Bft) W-SW22.5 255 0,00 min 16,1 klux 7,6 C 12,3 C
10.05.2004 18:40 15,8 C 17,3 C 57 % 1011 hPa 0,0 l/m 5,0 m/s (1 Bft) W-SW22.5 250 0,00 min 18,4 klux 7,3 C 11,3 C
10.05.2004 18:45 15,8 C 17,3 C 57 % 1011 hPa 0,0 l/m 3,2 m/s (1 Bft) W45 265 0,00 min 19,3 klux 7,3 C 13,3 C
10.05.2004 18:50 15,8 C 17,3 C 57 % 1011 hPa 0,0 l/m 2,8 m/s (1 Bft) W-SW22.5 250 0,00 min 18,5 klux 7,3 C 14,0 C
10.05.2004 18:55 16,0 C 17,2 C 55 % 1011 hPa 0,0 l/m 4,3 m/s (1 Bft) W45 275 0,00 min 17,2 klux 7,0 C 12,3 C
10.05.2004 19:00 15,8 C 17,1 C 56 % 1011 hPa 0,0 l/m 3,8 m/s (1 Bft) W22.5 275 0,00 min 15,0 klux 7,0 C 12,6 C
10.05.2004 19:05 15,8 C 16,8 C 56 % 1011 hPa 0,0 l/m 3,8 m/s (1 Bft) W22.5 275 0,00 min 13,6 klux 7,0 C 12,6 C
10.05.2004 19:10 15,3 C 16,8 C 57 % 1011 hPa 0,0 l/m 4,6 m/s (1 Bft) W67.5 265 0,00 min 14,5 klux 6,8 C 11,1 C
10.05.2004 19:15 15,2 C 16,7 C 58 % 1011 hPa 0,0 l/m 3,7 m/s (1 Bft) W45 265 0,00 min 13,0 klux 7,0 C 12,0 C
10.05.2004 19:20 15,1 C 16,5 C 58 % 1011 hPa 0,0 l/m 3,4 m/s (1 Bft) W22.5 265 0,00 min 12,5 klux 6,9 C 12,3 C
10.05.2004 19:25 14,9 C 16,4 C 61 % 1011 hPa 0,0 l/m 3,6 m/s (1 Bft) W22.5 260 0,00 min 11,1 klux 7,4 C 11,8 C
10.05.2004 19:30 14,7 C 16,1 C 62 % 1012 hPa 0,0 l/m 4,6 m/s (1 Bft) W45 270 0,00 min 11,0 klux 7,5 C 10,3 C
10.05.2004 19:35 14,7 C 16,1 C 62 % 1012 hPa 0,0 l/m 3,5 m/s (1 Bft) W45 270 5,00 min 16,6 klux 7,5 C 11,7 C
10.05.2004 19:40 15,6 C 16,2 C 59 % 1012 hPa 0,0 l/m 5,0 m/s (1 Bft) W45 265 5,00 min 16,6 klux 7,6 C 11,1 C
10.05.2004 19:45 15,3 C 16,5 C 58 % 1012 hPa 0,0 l/m 3,9 m/s (1 Bft) W45 260 5,00 min 14,6 klux 7,1 C 11,9 C
10.05.2004 19:50 15,5 C 16,6 C 58 % 1012 hPa 0,0 l/m 4,6 m/s (1 Bft) W-SW22.5 255 5,00 min 13,6 klux 7,3 C 11,3 C
10.05.2004 19:55 15,4 C 16,6 C 59 % 1012 hPa 0,0 l/m 3,1 m/s (1 Bft) W-SW 250 5,00 min 12,3 klux 7,4 C 13,0 C
10.05.2004 20:00 15,2 C 16,6 C 59 % 1012 hPa 0,0 l/m 3,0 m/s (1 Bft) W-SW22.5 250 0,00 min 10,6 klux 7,2 C 13,0 C
10.05.2004 20:05 15,2 C 16,5 C 59 % 1012 hPa 0,0 l/m 2,2 m/s (1 Bft) W-SW22.5 245 0,00 min 9,3 klux 7,2 C 14,4 C
10.05.2004 20:10 14,9 C 16,2 C 61 % 1012 hPa 0,0 l/m 2,3 m/s (1 Bft) W-SW22.5 250 0,00 min 8,23 klux 7,4 C 13,8 C
10.05.2004 20:15 14,7 C 15,9 C 61 % 1012 hPa 0,0 l/m 1,3 m/s (1 Bft) W-SW 255 0,00 min 6,98 klux 7,3 C 14,7 C
10.05.2004 20:20 14,4 C 15,6 C 62 % 1012 hPa 0,0 l/m 1,1 m/s (0 Bft) W-SW22.5 250 0,00 min 5,72 klux 7,2 C 14,4 C
10.05.2004 20:25 13,8 C 15,2 C 65 % 1012 hPa 0,0 l/m 1,0 m/s (0 Bft) W-SW 245 0,00 min 4,18 klux 7,3 C 13,8 C
10.05.2004 20:30 13,2 C 15,0 C 68 % 1012 hPa 0,0 l/m 0,7 m/s (0 Bft) W-SW 245 0,00 min 3,14 klux 7,4 C 13,2 C
10.05.2004 20:35 12,7 C 14,6 C 71 % 1012 hPa 0,0 l/m 0,8 m/s (0 Bft) W-SW 245 0,00 min 2,32 klux 7,6 C 12,7 C
10.05.2004 20:40 12,6 C 14,2 C 72 % 1012 hPa 0,0 l/m 0,9 m/s (0 Bft) W-SW 245 0,00 min 1,79 klux 7,7 C 12,6 C
10.05.2004 20:45 12,2 C 13,9 C 73 % 1012 hPa 0,0 l/m 1,1 m/s (0 Bft) W22.5 275 0,00 min 1,29 klux 7,5 C 12,2 C
10.05.2004 20:50 11,8 C 13,8 C 74 % 1012 hPa 0,0 l/m 0,7 m/s (0 Bft) W-NW 285 0,00 min 961 lux 7,3 C 11,8 C
10.05.2004 20:55 11,7 C 13,4 C 75 % 1012 hPa 0,0 l/m 0,1 m/s (0 Bft) W-NW 290 0,00 min 690 lux 7,4 C 11,7 C
10.05.2004 21:00 11,4 C 13,1 C 76 % 1012 hPa 0,0 l/m 0,0 m/s (0 Bft) W-NW 290 0,00 min 459 lux 7,3 C 11,4 C
10.05.2004 21:05 11,2 C 13,0 C 77 % 1012 hPa 0,0 l/m 0,0 m/s (0 Bft) W-NW 285 0,00 min 364 lux 7,3 C 11,2 C
10.05.2004 21:10 11,2 C 12,8 C 78 % 1012 hPa 0,0 l/m 0,0 m/s (0 Bft) W-NW 285 0,00 min 232 lux 7,5 C 11,2 C
10.05.2004 21:15 11,1 C 12,6 C 78 % 1012 hPa 0,0 l/m 0,0 m/s (0 Bft) W-NW 285 0,00 min 143 lux 7,4 C 11,1 C
10.05.2004 21:20 11,0 C 12,5 C 78 % 1013 hPa 0,0 l/m 0,0 m/s (0 Bft) W-NW 285 0,00 min 83 lux 7,3 C 11,0 C
10.05.2004 21:25 11,0 C 12,3 C 79 % 1013 hPa 0,0 l/m 0,0 m/s (0 Bft) W-NW 285 0,00 min 46 lux 7,5 C 11,0 C
10.05.2004 21:30 10,9 C 12,2 C 80 % 1013 hPa 0,0 l/m 0,0 m/s (0 Bft) W-NW 285 0,00 min 26 lux 7,6 C 10,9 C
10.05.2004 21:35 10,8 C 12,1 C 80 % 1013 hPa 0,0 l/m 0,0 m/s (0 Bft) W-NW 285 0,00 min 15 lux 7,5 C 10,8 C
10.05.2004 21:40 10,8 C 12,1 C 81 % 1013 hPa 0,0 l/m 0,0 m/s (0 Bft) W-NW 285 0,00 min 11 lux 7,7 C 10,8 C
10.05.2004 21:45 10,8 C 12,0 C 81 % 1013 hPa 0,0 l/m 0,0 m/s (0 Bft) W-NW 285 0,00 min 6 lux 7,7 C 10,8 C
10.05.2004 21:50 10,6 C 11,8 C 81 % 1013 hPa 0,0 l/m 0,0 m/s (0 Bft) W-NW 285 0,00 min 4 lux 7,5 C 10,6 C
10.05.2004 21:55 10,2 C 11,7 C 81 % 1013 hPa 0,0 l/m 0,0 m/s (0 Bft) W-NW 290 0,00 min 4 lux 7,1 C 10,2 C
10.05.2004 22:00 9,8 C 11,5 C 83 % 1013 hPa 0,0 l/m 0,0 m/s (0 Bft) W-NW 290 0,00 min 0 lux 7,1 C 9,8 C
10.05.2004 22:05 9,7 C 11,3 C 83 % 1013 hPa 0,0 l/m 0,0 m/s (0 Bft) W-NW 290 0,00 min 0 lux 7,0 C 9,7 C
10.05.2004 22:10 9,6 C 11,1 C 84 % 1013 hPa 0,0 l/m 0,0 m/s (0 Bft) W-NW 285 0,00 min 0 lux 7,0 C 9,6 C
10.05.2004 22:15 9,6 C 11,0 C 85 % 1013 hPa 0,0 l/m 0,0 m/s (0 Bft) W-NW 285 0,00 min 0 lux 7,2 C 9,6 C
10.05.2004 22:20 9,4 C 10,8 C 85 % 1013 hPa 0,0 l/m 0,0 m/s (0 Bft) W-NW 285 0,00 min 0 lux 7,0 C 9,4 C
10.05.2004 22:25 9,3 C 10,6 C 86 % 1013 hPa 0,0 l/m 0,0 m/s (0 Bft) W-NW 285 0,00 min 0 lux 7,1 C 9,3 C
10.05.2004 22:30 9,4 C 10,5 C 86 % 1013 hPa 0,0 l/m 0,0 m/s (0 Bft) W-NW 285 0,00 min 0 lux 7,2 C 9,4 C
10.05.2004 22:35 9,1 C 10,4 C 87 % 1013 hPa 0,0 l/m 0,0 m/s (0 Bft) W-NW 285 0,00 min 0 lux 7,1 C 9,1 C
10.05.2004 22:40 9,2 C 10,2 C 87 % 1013 hPa 0,0 l/m 0,0 m/s (0 Bft) W-NW 285 0,00 min 0 lux 7,2 C 9,2 C
10.05.2004 22:45 8,8 C 10,0 C 88 % 1013 hPa 0,0 l/m 0,0 m/s (0 Bft) W-NW 285 0,00 min 0 lux 6,9 C 8,8 C
10.05.2004 22:50 8,7 C 10,0 C 88 % 1013 hPa 0,0 l/m 0,0 m/s (0 Bft) W-NW 285 0,00 min 0 lux 6,8 C 8,7 C
10.05.2004 22:55 9,0 C 9,8 C 88 % 1013 hPa 0,0 l/m 0,1 m/s (0 Bft) W-SW 240 0,00 min 0 lux 7,1 C 9,0 C
10.05.2004 23:00 9,0 C 9,7 C 88 % 1013 hPa 0,0 l/m 0,6 m/s (0 Bft) W-SW 240 0,00 min 0 lux 7,1 C 9,0 C
10.05.2004 23:05 8,9 C 9,7 C 89 % 1014 hPa 0,0 l/m 0,0 m/s (0 Bft) W-SW 240 0,00 min 0 lux 7,2 C 8,9 C
10.05.2004 23:10 8,6 C 9,6 C 89 % 1014 hPa 0,0 l/m 0,0 m/s (0 Bft) W-SW 240 0,00 min 0 lux 6,9 C 8,6 C
10.05.2004 23:15 8,3 C 9,5 C 89 % 1013 hPa 0,0 l/m 0,0 m/s (0 Bft) W-SW 240 0,00 min 0 lux 6,6 C 8,3 C
10.05.2004 23:20 8,1 C 9,5 C 89 % 1013 hPa 0,0 l/m 0,0 m/s (0 Bft) W-SW 240 0,00 min 0 lux 6,4 C 8,1 C
10.05.2004 23:25 8,1 C 9,2 C 89 % 1014 hPa 0,0 l/m 0,0 m/s (0 Bft) W-SW 240 0,00 min 0 lux 6,4 C 8,1 C
10.05.2004 23:30 8,3 C 9,2 C 89 % 1014 hPa 0,0 l/m 0,9 m/s (0 Bft) W-SW 240 0,00 min 0 lux 6,6 C 8,3 C
10.05.2004 23:35 8,6 C 9,1 C 90 % 1014 hPa 0,0 l/m 0,0 m/s (0 Bft) SW 235 0,00 min 0 lux 7,1 C 8,6 C
10.05.2004 23:40 8,5 C 9,1 C 90 % 1014 hPa 0,0 l/m 0,2 m/s (0 Bft) W-SW 240 0,00 min 0 lux 7,0 C 8,5 C
10.05.2004 23:45 8,4 C 9,0 C 91 % 1014 hPa 0,0 l/m 1,2 m/s (1 Bft) W-SW 240 0,00 min 0 lux 7,0 C 8,4 C
10.05.2004 23:50 8,3 C 8,9 C 91 % 1014 hPa 0,0 l/m 1,1 m/s (1 Bft) SW 235 0,00 min 0 lux 6,9 C 8,3 C
10.05.2004 23:55 8,3 C 8,9 C 91 % 1014 hPa 0,0 l/m 0,9 m/s (0 Bft) W-SW 240 0,00 min 0 lux 6,9 C 8,3 C
_ Min-Zeit 04:45 01:45 17:35 00:00 - 00:10 - - - - 00:05 04:45
Minimum _ 8,0 C 8,7 C 49 % 1008 hPa - 0,0 m/s (0 Bft) - - - - 6,3 C 8,0 C
_ Max-Zeit 17:30 17:05 05:00 23:05 02:50 14:30 - - 13:40 15:55 12:45 17:00
Maximum _ 18,3 C 22,1 C 92 % 1014 hPa 0,4 l/m 5,6 m/s
W-SW (4 Bft)
- - 5,00 min 96,2 klux 8,6 C 17,2 C
Durchschnitt _ 11,6 C 12,7 C 77 % 1011 hPa #0,4 l/m 1,4 m/s (1 Bft) W-SW - #2:10 h 16,8 klux 7,4 C 10,7 C